Time,TemperatureF,DewpointF,PressureIn,WindDirection,WindDirectionDegrees,WindSpeedMPH,WindSpeedGustMPH,Humidity,HourlyPrecipIn,Conditions,Clouds,dailyrainin,SoftwareType,DateUTC
2013-01-27 00:00:00,28.4,6.6,30.37,North,0,0.0,0.0,39,0.00,,,0.02,WUHU216HW,2013-01-27 05:00:00,
2013-01-27 00:01:00,28.4,7.2,30.38,North,0,0.0,0.0,40,0.00,,,0.00,WUHU216HW,2013-01-27 05:01:00,
2013-01-27 00:06:00,28.4,7.2,30.38,North,0,0.0,0.0,40,0.00,,,0.00,WUHU216HW,2013-01-27 05:06:00,
2013-01-27 00:11:00,28.3,7.0,30.39,North,0,0.0,0.0,40,0.00,,,0.00,WUHU216HW,2013-01-27 05:11:00,
2013-01-27 00:16:00,28.1,7.9,30.39,North,0,0.0,0.0,42,0.00,,,0.00,WUHU216HW,2013-01-27 05:16:00,
2013-01-27 00:21:00,27.7,8.0,30.39,North,0,0.0,0.0,43,0.00,,,0.00,WUHU216HW,2013-01-27 05:21:00,
2013-01-27 00:26:00,27.7,7.0,30.39,North,0,0.0,0.0,41,0.00,,,0.00,WUHU216HW,2013-01-27 05:26:00,
2013-01-27 00:31:00,27.7,5.3,30.39,North,0,0.0,0.0,38,0.00,,,0.00,WUHU216HW,2013-01-27 05:31:00,
2013-01-27 00:36:00,27.5,6.4,30.39,North,0,0.0,0.0,40,0.00,,,0.00,WUHU216HW,2013-01-27 05:36:00,
2013-01-27 00:41:00,27.2,6.0,30.39,North,0,0.0,0.0,40,0.00,,,0.00,WUHU216HW,2013-01-27 05:41:00,
2013-01-27 00:46:00,27.0,7.4,30.39,North,0,0.0,0.0,43,0.00,,,0.00,WUHU216HW,2013-01-27 05:46:00,
2013-01-27 00:51:00,27.0,6.0,30.39,North,0,0.0,0.0,40,0.00,,,0.00,WUHU216HW,2013-01-27 05:51:00,
2013-01-27 00:56:00,27.0,6.8,30.39,North,0,0.0,0.0,42,0.00,,,0.00,WUHU216HW,2013-01-27 05:56:00,
2013-01-27 01:01:00,27.0,7.4,30.39,North,0,0.0,0.0,43,0.00,,,0.00,WUHU216HW,2013-01-27 06:01:00,
2013-01-27 01:06:00,27.0,6.8,30.39,North,0,0.0,0.0,42,0.00,,,0.00,WUHU216HW,2013-01-27 06:06:00,
2013-01-27 01:11:00,27.0,6.8,30.39,North,0,0.0,0.0,42,0.00,,,0.00,WUHU216HW,2013-01-27 06:11:00,
2013-01-27 01:16:00,27.0,7.4,30.39,North,0,0.0,0.0,43,0.00,,,0.00,WUHU216HW,2013-01-27 06:16:00,
2013-01-27 01:21:00,26.8,7.7,30.39,North,0,0.0,0.0,44,0.00,,,0.00,WUHU216HW,2013-01-27 06:21:00,
2013-01-27 01:26:00,26.6,8.0,30.39,North,0,0.0,0.0,45,0.00,,,0.00,WUHU216HW,2013-01-27 06:26:00,
2013-01-27 01:31:00,26.6,8.5,30.39,North,0,0.0,0.0,46,0.00,,,0.00,WUHU216HW,2013-01-27 06:31:00,
2013-01-27 01:36:00,26.3,7.7,30.39,North,0,0.0,0.0,45,0.00,,,0.00,WUHU216HW,2013-01-27 06:36:00,
2013-01-27 01:41:00,26.1,7.6,30.40,North,0,0.0,0.0,45,0.00,,,0.00,WUHU216HW,2013-01-27 06:41:00,
2013-01-27 01:46:00,26.3,4.6,30.40,North,0,0.0,0.0,39,0.00,,,0.00,WUHU216HW,2013-01-27 06:46:00,
2013-01-27 01:51:00,26.6,5.6,30.40,North,0,0.0,0.0,40,0.00,,,0.00,WUHU216HW,2013-01-27 06:51:00,
2013-01-27 01:56:00,26.5,6.4,30.40,North,0,0.0,0.0,42,0.00,,,0.00,WUHU216HW,2013-01-27 06:56:00,
2013-01-27 02:01:00,26.5,6.0,30.40,North,0,0.0,0.0,41,0.00,,,0.00,WUHU216HW,2013-01-27 07:01:00,
2013-01-27 02:06:00,26.3,6.8,30.40,North,0,0.0,0.0,43,0.00,,,0.00,WUHU216HW,2013-01-27 07:06:00,
2013-01-27 02:13:00,26.3,4.6,30.41,North,0,0.0,0.0,39,0.00,,,0.00,WUHU216HW,2013-01-27 07:13:00,
2013-01-27 02:18:00,26.1,6.6,30.41,North,0,0.0,0.0,43,0.00,,,0.00,WUHU216HW,2013-01-27 07:18:00,
2013-01-27 02:23:00,25.9,6.0,30.41,North,0,0.0,0.0,42,0.00,,,0.00,WUHU216HW,2013-01-27 07:23:00,
2013-01-27 02:28:00,25.7,5.8,30.41,North,0,0.0,0.0,42,0.00,,,0.00,WUHU216HW,2013-01-27 07:28:00,
2013-01-27 02:33:00,25.6,5.6,30.42,North,0,0.0,0.0,42,0.00,,,0.00,WUHU216HW,2013-01-27 07:33:00,
2013-01-27 02:38:00,25.6,4.0,30.42,North,0,0.0,0.0,39,0.00,,,0.00,WUHU216HW,2013-01-27 07:38:00,
2013-01-27 02:43:00,25.7,4.1,30.42,North,0,0.0,0.0,39,0.00,,,0.00,WUHU216HW,2013-01-27 07:43:00,
2013-01-27 02:48:00,25.6,5.6,30.42,North,0,0.0,0.0,42,0.00,,,0.00,WUHU216HW,2013-01-27 07:48:00,
2013-01-27 02:53:00,25.4,6.4,30.41,North,0,0.0,0.0,44,0.00,,,0.00,WUHU216HW,2013-01-27 07:53:00,
2013-01-27 02:58:00,25.0,7.0,30.41,North,0,0.0,0.0,46,0.00,,,0.00,WUHU216HW,2013-01-27 07:58:00,
2013-01-27 03:03:00,24.8,6.8,30.41,North,0,0.0,0.0,46,0.00,,,0.00,WUHU216HW,2013-01-27 08:03:00,
2013-01-27 03:08:00,24.8,6.0,30.42,North,0,0.0,0.0,44,0.00,,,0.00,WUHU216HW,2013-01-27 08:08:00,
2013-01-27 03:13:00,24.7,6.2,30.41,North,0,0.0,0.0,45,0.00,,,0.00,WUHU216HW,2013-01-27 08:13:00,
2013-01-27 03:18:00,24.5,6.6,30.41,North,0,0.0,0.0,46,0.00,,,0.00,WUHU216HW,2013-01-27 08:18:00,
2013-01-27 03:23:00,24.5,5.6,30.42,North,0,0.0,0.0,44,0.00,,,0.00,WUHU216HW,2013-01-27 08:23:00,
2013-01-27 03:28:00,24.5,6.6,30.41,North,0,0.0,0.0,46,0.00,,,0.00,WUHU216HW,2013-01-27 08:28:00,
2013-01-27 03:33:00,24.3,5.4,30.42,North,0,0.0,0.0,44,0.00,,,0.00,WUHU216HW,2013-01-27 08:33:00,
2013-01-27 03:38:00,24.1,5.8,30.41,North,0,0.0,0.0,45,0.00,,,0.00,WUHU216HW,2013-01-27 08:38:00,
2013-01-27 03:43:00,24.1,5.2,30.42,North,0,0.0,0.0,44,0.00,,,0.00,WUHU216HW,2013-01-27 08:43:00,
2013-01-27 03:48:00,24.1,5.8,30.42,North,0,0.0,0.0,45,0.00,,,0.00,WUHU216HW,2013-01-27 08:48:00,
2013-01-27 03:53:00,24.1,4.8,30.42,North,0,0.0,0.0,43,0.00,,,0.00,WUHU216HW,2013-01-27 08:53:00,
2013-01-27 03:58:00,24.1,5.2,30.42,North,0,0.0,0.0,44,0.00,,,0.00,WUHU216HW,2013-01-27 08:58:00,
2013-01-27 04:03:00,23.9,6.0,30.42,North,0,0.0,0.0,46,0.00,,,0.00,WUHU216HW,2013-01-27 09:03:00,
2013-01-27 04:08:00,23.6,5.8,30.42,North,0,0.0,0.0,46,0.00,,,0.00,WUHU216HW,2013-01-27 09:08:00,
2013-01-27 04:13:00,23.4,5.6,30.42,North,0,0.0,0.0,46,0.00,,,0.00,WUHU216HW,2013-01-27 09:13:00,
2013-01-27 04:18:00,23.4,6.0,30.42,North,0,0.0,0.0,47,0.00,,,0.00,WUHU216HW,2013-01-27 09:18:00,
2013-01-27 04:23:00,23.4,4.6,30.43,North,0,0.0,0.0,44,0.00,,,0.00,WUHU216HW,2013-01-27 09:23:00,
2013-01-27 04:28:00,23.4,4.6,30.43,North,0,0.0,0.0,44,0.00,,,0.00,WUHU216HW,2013-01-27 09:28:00,
2013-01-27 04:33:00,23.4,5.6,30.42,North,0,0.0,0.0,46,0.00,,,0.00,WUHU216HW,2013-01-27 09:33:00,
2013-01-27 04:38:00,23.4,6.0,30.42,North,0,0.0,0.0,47,0.00,,,0.00,WUHU216HW,2013-01-27 09:38:00,
2013-01-27 04:43:00,23.2,6.0,30.42,North,0,0.0,0.0,47,0.00,,,0.00,WUHU216HW,2013-01-27 09:43:00,
2013-01-27 04:48:00,23.0,6.2,30.42,North,0,0.0,0.0,48,0.00,,,0.00,WUHU216HW,2013-01-27 09:48:00,
2013-01-27 04:53:00,23.0,5.8,30.43,North,0,0.0,0.0,47,0.00,,,0.00,WUHU216HW,2013-01-27 09:53:00,
2013-01-27 04:58:00,23.0,4.3,30.43,North,0,0.0,0.0,44,0.00,,,0.00,WUHU216HW,2013-01-27 09:58:00,
2013-01-27 05:03:00,23.4,5.6,30.43,North,0,0.0,0.0,46,0.00,,,0.00,WUHU216HW,2013-01-27 10:03:00,
2013-01-27 05:08:00,23.4,6.0,30.43,North,0,0.0,0.0,47,0.00,,,0.00,WUHU216HW,2013-01-27 10:08:00,
2013-01-27 05:13:00,23.2,6.4,30.43,North,0,0.0,0.0,48,0.00,,,0.00,WUHU216HW,2013-01-27 10:13:00,
2013-01-27 05:18:00,23.4,6.6,30.43,North,0,0.0,0.0,48,0.00,,,0.00,WUHU216HW,2013-01-27 10:18:00,
2013-01-27 05:23:00,23.4,6.6,30.43,North,0,0.0,0.0,48,0.00,,,0.00,WUHU216HW,2013-01-27 10:23:00,
2013-01-27 05:28:00,23.6,6.2,30.43,North,0,0.0,0.0,47,0.00,,,0.00,WUHU216HW,2013-01-27 10:28:00,
2013-01-27 05:33:00,23.6,6.2,30.43,North,0,0.0,0.0,47,0.00,,,0.00,WUHU216HW,2013-01-27 10:33:00,
2013-01-27 05:38:00,23.8,6.8,30.43,North,0,0.0,0.0,48,0.00,,,0.00,WUHU216HW,2013-01-27 10:38:00,
2013-01-27 05:43:00,23.8,6.8,30.43,North,0,0.0,0.0,48,0.00,,,0.00,WUHU216HW,2013-01-27 10:43:00,
2013-01-27 05:48:00,23.8,7.4,30.43,North,0,0.0,0.0,49,0.00,,,0.00,WUHU216HW,2013-01-27 10:48:00,
2013-01-27 05:53:00,23.8,7.8,30.43,North,0,0.0,0.0,50,0.00,,,0.00,WUHU216HW,2013-01-27 10:53:00,
2013-01-27 05:58:00,23.8,7.4,30.44,North,0,0.0,0.0,49,0.00,,,0.00,WUHU216HW,2013-01-27 10:58:00,
2013-01-27 06:03:00,23.9,7.6,30.44,North,0,0.0,0.0,49,0.00,,,0.00,WUHU216HW,2013-01-27 11:03:00,
2013-01-27 06:08:00,24.1,8.2,30.44,North,0,0.0,0.0,50,0.00,,,0.00,WUHU216HW,2013-01-27 11:08:00,
2013-01-27 06:13:00,24.3,8.4,30.44,North,0,0.0,0.0,50,0.00,,,0.00,WUHU216HW,2013-01-27 11:13:00,
2013-01-27 06:18:00,24.5,8.9,30.44,North,0,0.0,0.0,51,0.00,,,0.00,WUHU216HW,2013-01-27 11:18:00,
2013-01-27 06:23:00,24.5,8.9,30.44,North,0,0.0,0.0,51,0.00,,,0.00,WUHU216HW,2013-01-27 11:23:00,
2013-01-27 06:28:00,24.5,9.7,30.45,North,0,0.0,0.0,53,0.00,,,0.00,WUHU216HW,2013-01-27 11:28:00,
2013-01-27 06:33:00,24.5,9.7,30.45,North,0,0.0,0.0,53,0.00,,,0.00,WUHU216HW,2013-01-27 11:33:00,
2013-01-27 06:38:00,24.5,10.2,30.45,North,0,0.0,0.0,54,0.00,,,0.00,WUHU216HW,2013-01-27 11:38:00,
2013-01-27 06:43:00,24.5,10.2,30.45,North,0,0.0,0.0,54,0.00,,,0.00,WUHU216HW,2013-01-27 11:43:00,
2013-01-27 06:48:00,24.7,10.4,30.45,North,0,0.0,0.0,54,0.00,,,0.00,WUHU216HW,2013-01-27 11:48:00,
2013-01-27 06:53:00,24.7,10.4,30.46,North,0,0.0,0.0,54,0.00,,,0.00,WUHU216HW,2013-01-27 11:53:00,
2013-01-27 06:58:00,24.5,10.5,30.46,North,0,0.0,0.0,55,0.00,,,0.00,WUHU216HW,2013-01-27 11:58:00,
2013-01-27 07:03:00,24.5,10.5,30.47,North,0,0.0,0.0,55,0.00,,,0.00,WUHU216HW,2013-01-27 12:03:00,
2013-01-27 07:08:00,24.3,10.4,30.47,North,0,0.0,0.0,55,0.00,,,0.00,WUHU216HW,2013-01-27 12:08:00,
2013-01-27 07:13:00,24.3,10.4,30.48,North,0,0.0,0.0,55,0.00,,,0.00,WUHU216HW,2013-01-27 12:13:00,
2013-01-27 07:18:00,24.3,10.8,30.48,North,0,0.0,0.0,56,0.00,,,0.00,WUHU216HW,2013-01-27 12:18:00,
2013-01-27 07:23:00,24.1,10.6,30.49,North,0,0.0,0.0,56,0.00,,,0.00,WUHU216HW,2013-01-27 12:23:00,
2013-01-27 07:28:00,24.3,10.8,30.49,North,0,0.0,0.0,56,0.00,,,0.00,WUHU216HW,2013-01-27 12:28:00,
2013-01-27 07:33:00,24.3,10.4,30.49,North,0,0.0,0.0,55,0.00,,,0.00,WUHU216HW,2013-01-27 12:33:00,
2013-01-27 07:38:00,24.3,10.4,30.49,North,0,0.0,0.0,55,0.00,,,0.00,WUHU216HW,2013-01-27 12:38:00,
2013-01-27 07:43:00,24.3,10.4,30.50,North,0,0.0,0.0,55,0.00,,,0.00,WUHU216HW,2013-01-27 12:43:00,
2013-01-27 07:48:00,24.1,10.2,30.50,North,0,0.0,0.0,55,0.00,,,0.00,WUHU216HW,2013-01-27 12:48:00,
2013-01-27 07:53:00,24.1,9.8,30.50,North,0,0.0,0.0,54,0.00,,,0.00,WUHU216HW,2013-01-27 12:53:00,
2013-01-27 07:58:00,24.1,9.8,30.50,North,0,0.0,0.0,54,0.00,,,0.00,WUHU216HW,2013-01-27 12:58:00,
2013-01-27 08:03:00,24.1,9.4,30.51,North,0,0.0,0.0,53,0.00,,,0.00,WUHU216HW,2013-01-27 13:03:00,
2013-01-27 08:08:00,24.1,9.0,30.51,North,0,0.0,0.0,52,0.00,,,0.00,WUHU216HW,2013-01-27 13:08:00,
2013-01-27 08:13:00,24.5,9.4,30.51,North,0,0.0,0.0,52,0.00,,,0.00,WUHU216HW,2013-01-27 13:13:00,
2013-01-27 08:18:00,25.0,9.0,30.51,North,0,0.0,0.0,50,0.00,,,0.00,WUHU216HW,2013-01-27 13:18:00,
2013-01-27 08:23:00,25.2,9.2,30.52,North,0,0.0,0.0,50,0.00,,,0.00,WUHU216HW,2013-01-27 13:23:00,
2013-01-27 08:28:00,25.4,9.3,30.52,North,0,0.0,0.0,50,0.00,,,0.00,WUHU216HW,2013-01-27 13:28:00,
2013-01-27 08:33:00,25.6,9.5,30.52,North,0,0.0,0.0,50,0.00,,,0.00,WUHU216HW,2013-01-27 13:33:00,
2013-01-27 08:38:00,25.9,9.3,30.52,North,0,0.0,0.0,49,0.00,,,0.00,WUHU216HW,2013-01-27 13:38:00,
2013-01-27 08:43:00,26.3,9.2,30.52,North,0,0.0,0.0,48,0.00,,,0.00,WUHU216HW,2013-01-27 13:43:00,
2013-01-27 08:48:00,26.6,9.5,30.52,North,0,0.0,0.0,48,0.00,,,0.00,WUHU216HW,2013-01-27 13:48:00,
2013-01-27 08:53:00,27.0,9.8,30.52,North,0,0.0,0.0,48,0.00,,,0.00,WUHU216HW,2013-01-27 13:53:00,
2013-01-27 08:58:00,27.4,9.7,30.52,North,0,0.0,0.0,47,0.00,,,0.00,WUHU216HW,2013-01-27 13:58:00,
2013-01-27 09:03:00,27.5,9.8,30.53,North,0,0.0,0.0,47,0.00,,,0.00,WUHU216HW,2013-01-27 14:03:00,
2013-01-27 09:08:00,27.9,9.7,30.53,North,0,0.0,0.0,46,0.00,,,0.00,WUHU216HW,2013-01-27 14:08:00,
2013-01-27 09:13:00,28.3,10.1,30.53,North,0,0.0,0.0,46,0.00,,,0.00,WUHU216HW,2013-01-27 14:13:00,
2013-01-27 09:18:00,28.6,10.4,30.53,North,0,0.0,0.0,46,0.00,,,0.00,WUHU216HW,2013-01-27 14:18:00,
2013-01-27 09:23:00,28.8,11.1,30.53,North,0,0.0,0.0,47,0.00,,,0.00,WUHU216HW,2013-01-27 14:23:00,
2013-01-27 09:28:00,29.3,11.1,30.53,North,0,0.0,0.0,46,0.00,,,0.00,WUHU216HW,2013-01-27 14:28:00,
2013-01-27 09:33:00,29.5,11.2,30.53,North,0,0.0,0.0,46,0.00,,,0.00,WUHU216HW,2013-01-27 14:33:00,
2013-01-27 09:38:00,29.9,12.1,30.54,North,0,0.0,0.0,47,0.00,,,0.00,WUHU216HW,2013-01-27 14:38:00,
2013-01-27 09:43:00,30.2,12.3,30.54,North,0,0.0,0.0,47,0.00,,,0.00,WUHU216HW,2013-01-27 14:43:00,
2013-01-27 09:48:00,30.4,13.5,30.54,North,0,0.0,0.0,49,0.00,,,0.00,WUHU216HW,2013-01-27 14:48:00,
2013-01-27 09:53:00,31.0,14.5,30.55,North,0,0.0,0.0,50,0.00,,,0.00,WUHU216HW,2013-01-27 14:53:00,
2013-01-27 09:58:00,31.3,14.9,30.55,North,0,0.0,0.0,50,0.00,,,0.00,WUHU216HW,2013-01-27 14:58:00,
2013-01-27 10:03:00,31.5,15.8,30.55,North,0,0.0,0.0,52,0.00,,,0.00,WUHU216HW,2013-01-27 15:03:00,
2013-01-27 10:08:00,31.7,16.0,30.56,North,0,0.0,0.0,52,0.00,,,0.00,WUHU216HW,2013-01-27 15:08:00,
2013-01-27 10:13:00,32.0,16.7,30.56,North,0,0.0,0.0,53,0.00,,,0.00,WUHU216HW,2013-01-27 15:13:00,
2013-01-27 10:18:00,32.4,19.3,30.56,North,0,0.0,0.0,58,0.00,,,0.00,WUHU216HW,2013-01-27 15:18:00,
2013-01-27 10:23:00,32.8,18.7,30.56,North,0,0.0,0.0,56,0.00,,,0.00,WUHU216HW,2013-01-27 15:23:00,
2013-01-27 10:28:00,32.9,19.4,30.56,North,0,0.0,0.0,57,0.00,,,0.00,WUHU216HW,2013-01-27 15:28:00,
2013-01-27 10:33:00,33.5,19.8,30.56,North,0,0.0,0.0,57,0.00,,,0.00,WUHU216HW,2013-01-27 15:33:00,
2013-01-27 10:38:00,33.8,21.0,30.56,North,0,0.0,0.0,59,0.00,,,0.00,WUHU216HW,2013-01-27 15:38:00,
2013-01-27 10:43:00,34.2,22.1,30.56,North,0,0.0,0.0,61,0.00,,,0.00,WUHU216HW,2013-01-27 15:43:00,
2013-01-27 10:48:00,34.2,22.5,30.56,North,0,0.0,0.0,62,0.00,,,0.00,WUHU216HW,2013-01-27 15:48:00,
2013-01-27 10:53:00,34.4,24.1,30.56,North,0,0.0,0.0,66,0.00,,,0.00,WUHU216HW,2013-01-27 15:53:00,
2013-01-27 10:58:00,34.6,23.6,30.56,North,0,0.0,0.0,64,0.00,,,0.00,WUHU216HW,2013-01-27 15:58:00,
2013-01-27 11:03:00,34.7,23.8,30.56,North,0,0.0,0.0,64,0.00,,,0.00,WUHU216HW,2013-01-27 16:03:00,
2013-01-27 11:08:00,34.9,24.7,30.56,North,0,0.0,0.0,66,0.00,,,0.00,WUHU216HW,2013-01-27 16:08:00,
2013-01-27 11:13:00,34.9,24.7,30.56,North,0,0.0,0.0,66,0.00,,,0.00,WUHU216HW,2013-01-27 16:13:00,
2013-01-27 11:18:00,35.3,24.7,30.56,North,0,0.0,0.0,65,0.00,,,0.00,WUHU216HW,2013-01-27 16:18:00,
2013-01-27 11:23:00,35.6,25.0,30.56,North,0,0.0,0.0,65,0.00,,,0.00,WUHU216HW,2013-01-27 16:23:00,
2013-01-27 11:28:00,35.6,25.4,30.55,North,0,0.0,0.0,66,0.00,,,0.00,WUHU216HW,2013-01-27 16:28:00,
2013-01-27 11:33:00,35.6,25.4,30.55,North,0,0.0,0.0,66,0.00,,,0.00,WUHU216HW,2013-01-27 16:33:00,
2013-01-27 11:38:00,35.6,25.7,30.55,North,0,0.0,0.0,67,0.01,,,0.00,WUHU216HW,2013-01-27 16:38:00,
2013-01-27 11:43:00,35.6,25.7,30.55,North,0,0.0,0.0,67,0.01,,,0.00,WUHU216HW,2013-01-27 16:43:00,
2013-01-27 11:48:00,35.6,25.7,30.55,North,0,0.0,0.0,67,0.01,,,0.00,WUHU216HW,2013-01-27 16:48:00,
2013-01-27 11:53:00,35.6,25.4,30.55,North,0,0.0,0.0,66,0.01,,,0.00,WUHU216HW,2013-01-27 16:53:00,
2013-01-27 11:58:00,35.6,25.7,30.55,North,0,0.0,0.0,67,0.01,,,0.00,WUHU216HW,2013-01-27 16:58:00,
2013-01-27 12:03:00,36.0,26.1,30.55,North,0,0.0,0.0,67,0.01,,,0.00,WUHU216HW,2013-01-27 17:03:00,
2013-01-27 12:08:00,36.4,26.5,30.55,North,0,0.0,0.0,67,0.01,,,0.00,WUHU216HW,2013-01-27 17:08:00,
2013-01-27 12:13:00,36.7,26.8,30.55,North,0,0.0,0.0,67,0.01,,,0.00,WUHU216HW,2013-01-27 17:13:00,
2013-01-27 12:18:00,36.9,26.6,30.54,North,0,0.0,0.0,66,0.01,,,0.00,WUHU216HW,2013-01-27 17:18:00,
2013-01-27 12:23:00,37.1,26.7,30.54,North,0,0.0,0.0,66,0.01,,,0.00,WUHU216HW,2013-01-27 17:23:00,
2013-01-27 12:28:00,37.3,26.9,30.53,North,0,0.0,0.0,66,0.01,,,0.00,WUHU216HW,2013-01-27 17:28:00,
2013-01-27 12:33:00,37.6,27.3,30.53,North,0,0.0,0.0,66,0.01,,,0.00,WUHU216HW,2013-01-27 17:33:00,
2013-01-27 12:38:00,37.3,26.6,30.53,North,0,0.0,0.0,65,0.00,,,0.00,WUHU216HW,2013-01-27 17:38:00,
2013-01-27 12:43:00,37.3,26.9,30.53,North,0,0.0,0.0,66,0.00,,,0.00,WUHU216HW,2013-01-27 17:43:00,
2013-01-27 12:48:00,37.6,27.3,30.52,North,0,0.0,0.0,66,0.00,,,0.00,WUHU216HW,2013-01-27 17:48:00,
2013-01-27 12:53:00,37.8,27.1,30.52,North,0,0.0,0.0,65,0.00,,,0.00,WUHU216HW,2013-01-27 17:53:00,
2013-01-27 12:58:00,37.8,27.1,30.51,North,0,0.0,0.0,65,0.00,,,0.00,WUHU216HW,2013-01-27 17:58:00,
2013-01-27 13:03:00,37.8,27.1,30.51,North,0,0.0,0.0,65,0.00,,,0.00,WUHU216HW,2013-01-27 18:03:00,
2013-01-27 13:08:00,38.2,27.4,30.51,North,0,0.0,0.0,65,0.00,,,0.00,WUHU216HW,2013-01-27 18:08:00,
2013-01-27 13:13:00,38.3,27.5,30.50,North,0,0.0,0.0,65,0.00,,,0.00,WUHU216HW,2013-01-27 18:13:00,
2013-01-27 13:18:00,38.5,27.7,30.50,North,0,0.0,0.0,65,0.00,,,0.00,WUHU216HW,2013-01-27 18:18:00,
2013-01-27 13:23:00,38.3,26.8,30.49,North,0,0.0,0.0,63,0.00,,,0.00,WUHU216HW,2013-01-27 18:23:00,
2013-01-27 13:28:00,38.5,26.9,30.49,North,0,0.0,0.0,63,0.00,,,0.00,WUHU216HW,2013-01-27 18:28:00,
2013-01-27 13:33:00,38.0,26.8,30.50,North,0,0.0,0.0,64,0.00,,,0.00,WUHU216HW,2013-01-27 18:33:00,
2013-01-27 13:38:00,38.3,27.5,30.51,North,0,0.0,0.0,65,0.00,,,0.00,WUHU216HW,2013-01-27 18:38:00,
2013-01-27 13:43:00,38.7,27.9,30.51,North,0,0.0,0.0,65,0.01,,,0.00,WUHU216HW,2013-01-27 18:43:00,
2013-01-27 13:48:00,38.9,27.6,30.51,North,0,0.0,0.0,64,0.01,,,0.02,WUHU216HW,2013-01-27 18:48:00,
2013-01-27 13:53:00,39.2,28.0,30.51,North,0,0.0,0.0,64,0.01,,,0.02,WUHU216HW,2013-01-27 18:53:00,
2013-01-27 13:58:00,39.4,28.2,30.51,North,0,0.0,0.0,64,0.01,,,0.02,WUHU216HW,2013-01-27 18:58:00,
2013-01-27 14:03:00,39.2,27.6,30.51,North,0,0.0,0.0,63,0.01,,,0.02,WUHU216HW,2013-01-27 19:03:00,
2013-01-27 14:08:00,38.9,26.9,30.51,North,0,0.0,0.0,62,0.01,,,0.02,WUHU216HW,2013-01-27 19:08:00,
2013-01-27 14:13:00,38.7,27.1,30.50,North,0,0.0,0.0,63,0.01,,,0.02,WUHU216HW,2013-01-27 19:13:00,
2013-01-27 14:18:00,38.9,27.3,30.50,North,0,0.0,0.0,63,0.01,,,0.02,WUHU216HW,2013-01-27 19:18:00,
2013-01-27 14:23:00,39.2,27.6,30.51,North,0,0.0,0.0,63,0.01,,,0.02,WUHU216HW,2013-01-27 19:23:00,
2013-01-27 14:28:00,39.6,28.0,30.50,North,0,0.0,0.0,63,0.01,,,0.02,WUHU216HW,2013-01-27 19:28:00,
2013-01-27 14:33:00,39.8,28.2,30.50,North,0,0.0,0.0,63,0.01,,,0.02,WUHU216HW,2013-01-27 19:33:00,
2013-01-27 14:38:00,39.4,27.8,30.50,North,0,0.0,0.0,63,0.01,,,0.02,WUHU216HW,2013-01-27 19:38:00,
2013-01-27 14:43:00,39.6,28.0,30.50,North,0,0.0,0.0,63,0.00,,,0.02,WUHU216HW,2013-01-27 19:43:00,
2013-01-27 14:48:00,39.8,28.2,30.48,North,0,0.0,0.0,63,0.00,,,0.02,WUHU216HW,2013-01-27 19:48:00,
2013-01-27 14:53:00,40.0,28.4,30.49,North,0,0.0,0.0,63,0.00,,,0.02,WUHU216HW,2013-01-27 19:53:00,
2013-01-27 14:58:00,40.0,28.7,30.49,North,0,0.0,0.0,64,0.00,,,0.02,WUHU216HW,2013-01-27 19:58:00,
2013-01-27 15:03:00,40.0,28.4,30.49,North,0,0.0,0.0,63,0.00,,,0.02,WUHU216HW,2013-01-27 20:03:00,
2013-01-27 15:08:00,40.0,28.7,30.49,North,0,0.0,0.0,64,0.00,,,0.02,WUHU216HW,2013-01-27 20:08:00,
2013-01-27 15:13:00,40.0,28.4,30.49,North,0,0.0,0.0,63,0.00,,,0.02,WUHU216HW,2013-01-27 20:13:00,
2013-01-27 15:18:00,40.0,28.4,30.49,North,0,0.0,0.0,63,0.00,,,0.02,WUHU216HW,2013-01-27 20:18:00,
2013-01-27 15:23:00,39.8,28.2,30.49,North,0,0.0,0.0,63,0.00,,,0.02,WUHU216HW,2013-01-27 20:23:00,
2013-01-27 15:28:00,40.0,28.4,30.49,North,0,0.0,0.0,63,0.00,,,0.02,WUHU216HW,2013-01-27 20:28:00,
2013-01-27 15:33:00,39.8,27.7,30.49,North,0,0.0,0.0,62,0.00,,,0.02,WUHU216HW,2013-01-27 20:33:00,
2013-01-27 15:38:00,39.6,28.0,30.49,North,0,0.0,0.0,63,0.00,,,0.02,WUHU216HW,2013-01-27 20:38:00,
2013-01-27 15:43:00,39.8,28.2,30.49,North,0,0.0,0.0,63,0.00,,,0.02,WUHU216HW,2013-01-27 20:43:00,
2013-01-27 15:48:00,39.8,28.2,30.49,North,0,0.0,0.0,63,0.00,,,0.02,WUHU216HW,2013-01-27 20:48:00,
2013-01-27 15:53:00,40.0,28.7,30.49,North,0,0.0,0.0,64,0.00,,,0.02,WUHU216HW,2013-01-27 20:53:00,
2013-01-27 15:58:00,40.0,28.4,30.49,North,0,0.0,0.0,63,0.00,,,0.02,WUHU216HW,2013-01-27 20:58:00,
2013-01-27 16:03:00,40.0,28.7,30.49,North,0,0.0,0.0,64,0.00,,,0.02,WUHU216HW,2013-01-27 21:03:00,
2013-01-27 16:08:00,40.0,28.4,30.48,North,0,0.0,0.0,63,0.00,,,0.02,WUHU216HW,2013-01-27 21:08:00,
2013-01-27 16:13:00,39.8,28.2,30.48,North,0,0.0,0.0,63,0.00,,,0.02,WUHU216HW,2013-01-27 21:13:00,
2013-01-27 16:18:00,39.8,28.2,30.47,North,0,0.0,0.0,63,0.00,,,0.02,WUHU216HW,2013-01-27 21:18:00,
2013-01-27 16:23:00,39.8,28.2,30.48,North,0,0.0,0.0,63,0.00,,,0.02,WUHU216HW,2013-01-27 21:23:00,
2013-01-27 16:28:00,39.6,28.0,30.48,North,0,0.0,0.0,63,0.00,,,0.02,WUHU216HW,2013-01-27 21:28:00,
2013-01-27 16:33:00,39.6,28.0,30.49,North,0,0.0,0.0,63,0.00,,,0.02,WUHU216HW,2013-01-27 21:33:00,
2013-01-27 16:38:00,39.6,28.0,30.49,North,0,0.0,0.0,63,0.00,,,0.02,WUHU216HW,2013-01-27 21:38:00,
2013-01-27 16:43:00,39.6,28.0,30.49,North,0,0.0,0.0,63,0.00,,,0.02,WUHU216HW,2013-01-27 21:43:00,
2013-01-27 16:48:00,39.4,27.8,30.49,North,0,0.0,0.0,63,0.00,,,0.02,WUHU216HW,2013-01-27 21:48:00,
2013-01-27 16:53:00,39.2,27.6,30.50,North,0,0.0,0.0,63,0.00,,,0.02,WUHU216HW,2013-01-27 21:53:00,
2013-01-27 16:58:00,39.2,27.6,30.50,North,0,0.0,0.0,63,0.00,,,0.02,WUHU216HW,2013-01-27 21:58:00,
2013-01-27 17:03:00,39.2,28.0,30.50,North,0,0.0,0.0,64,0.00,,,0.02,WUHU216HW,2013-01-27 22:03:00,
2013-01-27 17:08:00,39.1,27.8,30.50,North,0,0.0,0.0,64,0.00,,,0.02,WUHU216HW,2013-01-27 22:08:00,
2013-01-27 17:13:00,39.1,27.8,30.50,North,0,0.0,0.0,64,0.00,,,0.02,WUHU216HW,2013-01-27 22:13:00,
2013-01-27 17:18:00,38.9,27.6,30.50,North,0,0.0,0.0,64,0.00,,,0.02,WUHU216HW,2013-01-27 22:18:00,
2013-01-27 17:23:00,38.7,27.5,30.50,North,0,0.0,0.0,64,0.00,,,0.02,WUHU216HW,2013-01-27 22:23:00,
2013-01-27 17:28:00,38.5,27.4,30.50,North,0,0.0,0.0,64,0.00,,,0.02,WUHU216HW,2013-01-27 22:28:00,
2013-01-27 17:33:00,38.3,27.5,30.51,North,0,0.0,0.0,65,0.00,,,0.02,WUHU216HW,2013-01-27 22:33:00,
2013-01-27 17:38:00,38.2,27.4,30.51,North,0,0.0,0.0,65,0.00,,,0.02,WUHU216HW,2013-01-27 22:38:00,
2013-01-27 17:43:00,38.2,27.4,30.50,North,0,0.0,0.0,65,0.00,,,0.02,WUHU216HW,2013-01-27 22:43:00,
2013-01-27 17:48:00,38.0,27.2,30.51,North,0,0.0,0.0,65,0.00,,,0.02,WUHU216HW,2013-01-27 22:48:00,
2013-01-27 17:53:00,37.8,27.5,30.51,North,0,0.0,0.0,66,0.00,,,0.02,WUHU216HW,2013-01-27 22:53:00,
2013-01-27 17:58:00,37.8,27.5,30.50,North,0,0.0,0.0,66,0.00,,,0.02,WUHU216HW,2013-01-27 22:58:00,
2013-01-27 18:03:00,37.8,27.5,30.50,North,0,0.0,0.0,66,0.01,,,0.02,WUHU216HW,2013-01-27 23:03:00,
2013-01-27 18:08:00,37.6,27.3,30.50,North,0,0.0,0.0,66,0.01,,,0.02,WUHU216HW,2013-01-27 23:08:00,
2013-01-27 18:13:00,37.4,27.1,30.50,North,0,0.0,0.0,66,0.01,,,0.02,WUHU216HW,2013-01-27 23:13:00,
2013-01-27 18:18:00,37.1,27.2,30.50,North,0,0.0,0.0,67,0.01,,,0.02,WUHU216HW,2013-01-27 23:18:00,
2013-01-27 18:23:00,36.9,27.0,30.49,North,0,0.0,0.0,67,0.01,,,0.02,WUHU216HW,2013-01-27 23:23:00,
2013-01-27 18:28:00,36.7,26.8,30.50,North,0,0.0,0.0,67,0.01,,,0.02,WUHU216HW,2013-01-27 23:28:00,
2013-01-27 18:33:00,36.5,26.7,30.50,North,0,0.0,0.0,67,0.01,,,0.02,WUHU216HW,2013-01-27 23:33:00,
2013-01-27 18:38:00,36.2,26.3,30.51,North,0,0.0,0.0,67,0.01,,,0.02,WUHU216HW,2013-01-27 23:38:00,
2013-01-27 18:43:00,35.8,25.9,30.51,North,0,0.0,0.0,67,0.01,,,0.02,WUHU216HW,2013-01-27 23:43:00,
2013-01-27 18:48:00,35.6,25.7,30.51,North,0,0.0,0.0,67,0.01,,,0.02,WUHU216HW,2013-01-27 23:48:00,
2013-01-27 18:53:00,35.8,25.9,30.51,North,0,0.0,0.0,67,0.01,,,0.02,WUHU216HW,2013-01-27 23:53:00,
2013-01-27 18:58:00,35.8,25.9,30.51,North,0,0.0,0.0,67,0.00,,,0.02,WUHU216HW,2013-01-27 23:58:00,
2013-01-27 19:03:00,36.0,26.1,30.51,North,0,0.0,0.0,67,0.00,,,0.02,WUHU216HW,2013-01-28 00:03:00,
2013-01-27 19:08:00,36.0,26.1,30.51,North,0,0.0,0.0,67,0.00,,,0.02,WUHU216HW,2013-01-28 00:08:00,
2013-01-27 19:13:00,36.0,26.1,30.51,North,0,0.0,0.0,67,0.00,,,0.02,WUHU216HW,2013-01-28 00:13:00,
2013-01-27 19:18:00,35.6,25.7,30.51,North,0,0.0,0.0,67,0.00,,,0.02,WUHU216HW,2013-01-28 00:18:00,
2013-01-27 19:23:00,35.6,25.7,30.51,North,0,0.0,0.0,67,0.00,,,0.02,WUHU216HW,2013-01-28 00:23:00,
2013-01-27 19:28:00,35.6,25.7,30.51,North,0,0.0,0.0,67,0.00,,,0.02,WUHU216HW,2013-01-28 00:28:00,
2013-01-27 19:33:00,35.6,25.7,30.51,North,0,0.0,0.0,67,0.00,,,0.02,WUHU216HW,2013-01-28 00:33:00,
2013-01-27 19:38:00,35.5,25.6,30.50,North,0,0.0,0.0,67,0.00,,,0.02,WUHU216HW,2013-01-28 00:38:00,
2013-01-27 19:43:00,35.5,25.6,30.50,North,0,0.0,0.0,67,0.00,,,0.02,WUHU216HW,2013-01-28 00:43:00,
2013-01-27 19:48:00,35.3,25.4,30.49,North,0,0.0,0.0,67,0.00,,,0.02,WUHU216HW,2013-01-28 00:48:00,
2013-01-27 19:53:00,35.1,25.2,30.49,North,0,0.0,0.0,67,0.00,,,0.02,WUHU216HW,2013-01-28 00:53:00,
2013-01-27 19:58:00,35.1,25.2,30.49,North,0,0.0,0.0,67,0.00,,,0.02,WUHU216HW,2013-01-28 00:58:00,
2013-01-27 20:03:00,35.1,25.2,30.49,North,0,0.0,0.0,67,0.00,,,0.02,WUHU216HW,2013-01-28 01:03:00,
2013-01-27 20:08:00,34.9,25.0,30.49,North,0,0.0,0.0,67,0.00,,,0.02,WUHU216HW,2013-01-28 01:08:00,
2013-01-27 20:13:00,34.9,25.0,30.50,North,0,0.0,0.0,67,0.00,,,0.02,WUHU216HW,2013-01-28 01:13:00,
2013-01-27 20:18:00,34.9,25.0,30.50,North,0,0.0,0.0,67,0.00,,,0.02,WUHU216HW,2013-01-28 01:18:00,
2013-01-27 20:23:00,34.9,25.0,30.50,North,0,0.0,0.0,67,0.00,,,0.02,WUHU216HW,2013-01-28 01:23:00,
2013-01-27 20:28:00,34.9,25.0,30.51,North,0,0.0,0.0,67,0.00,,,0.02,WUHU216HW,2013-01-28 01:28:00,
2013-01-27 20:33:00,34.9,25.0,30.50,North,0,0.0,0.0,67,0.00,,,0.02,WUHU216HW,2013-01-28 01:33:00,
2013-01-27 20:38:00,34.9,25.0,30.50,North,0,0.0,0.0,67,0.00,,,0.02,WUHU216HW,2013-01-28 01:38:00,
2013-01-27 20:43:00,34.9,25.0,30.51,North,0,0.0,0.0,67,0.00,,,0.02,WUHU216HW,2013-01-28 01:43:00,
2013-01-27 20:48:00,34.9,25.0,30.51,North,0,0.0,0.0,67,0.00,,,0.02,WUHU216HW,2013-01-28 01:48:00,
2013-01-27 20:53:00,34.9,25.0,30.50,North,0,0.0,0.0,67,0.00,,,0.02,WUHU216HW,2013-01-28 01:53:00,
2013-01-27 20:58:00,34.9,25.0,30.50,North,0,0.0,0.0,67,0.00,,,0.02,WUHU216HW,2013-01-28 01:58:00,
2013-01-27 21:03:00,34.9,25.0,30.50,North,0,0.0,0.0,67,0.00,,,0.02,WUHU216HW,2013-01-28 02:03:00,
2013-01-27 21:08:00,34.9,25.0,30.50,North,0,0.0,0.0,67,0.00,,,0.02,WUHU216HW,2013-01-28 02:08:00,
2013-01-27 21:13:00,34.9,25.0,30.50,North,0,0.0,0.0,67,0.00,,,0.02,WUHU216HW,2013-01-28 02:13:00,
2013-01-27 21:18:00,34.7,24.8,30.51,North,0,0.0,0.0,67,0.00,,,0.02,WUHU216HW,2013-01-28 02:18:00,
2013-01-27 21:23:00,34.7,24.8,30.50,North,0,0.0,0.0,67,0.00,,,0.02,WUHU216HW,2013-01-28 02:23:00,
2013-01-27 21:28:00,34.7,24.8,30.51,North,0,0.0,0.0,67,0.00,,,0.02,WUHU216HW,2013-01-28 02:28:00,
2013-01-27 21:33:00,34.6,24.7,30.50,North,0,0.0,0.0,67,0.00,,,0.02,WUHU216HW,2013-01-28 02:33:00,
2013-01-27 21:38:00,34.6,24.7,30.50,North,0,0.0,0.0,67,0.00,,,0.02,WUHU216HW,2013-01-28 02:38:00,
2013-01-27 21:43:00,34.6,24.7,30.50,North,0,0.0,0.0,67,0.00,,,0.02,WUHU216HW,2013-01-28 02:43:00,
2013-01-27 21:48:00,34.6,24.7,30.50,North,0,0.0,0.0,67,0.00,,,0.02,WUHU216HW,2013-01-28 02:48:00,
2013-01-27 21:53:00,34.4,24.1,30.50,North,0,0.0,0.0,66,0.00,,,0.02,WUHU216HW,2013-01-28 02:53:00,
2013-01-27 21:58:00,34.4,24.1,30.50,North,0,0.0,0.0,66,0.00,,,0.02,WUHU216HW,2013-01-28 02:58:00,
2013-01-27 22:03:00,34.4,23.8,30.49,North,0,0.0,0.0,65,0.00,,,0.02,WUHU216HW,2013-01-28 03:03:00,
2013-01-27 22:08:00,34.6,23.9,30.49,North,0,0.0,0.0,65,0.00,,,0.02,WUHU216HW,2013-01-28 03:08:00,
2013-01-27 22:13:00,34.6,23.9,30.49,North,0,0.0,0.0,65,0.00,,,0.02,WUHU216HW,2013-01-28 03:13:00,
2013-01-27 22:18:00,34.6,24.3,30.49,North,0,0.0,0.0,66,0.00,,,0.02,WUHU216HW,2013-01-28 03:18:00,
2013-01-27 22:23:00,34.6,23.9,30.49,North,0,0.0,0.0,65,0.00,,,0.02,WUHU216HW,2013-01-28 03:23:00,
2013-01-27 22:28:00,34.7,24.1,30.49,North,0,0.0,0.0,65,0.00,,,0.02,WUHU216HW,2013-01-28 03:28:00,
2013-01-27 22:33:00,34.7,24.1,30.48,North,0,0.0,0.0,65,0.00,,,0.02,WUHU216HW,2013-01-28 03:33:00,
2013-01-27 22:38:00,34.7,24.1,30.48,North,0,0.0,0.0,65,0.00,,,0.02,WUHU216HW,2013-01-28 03:38:00,
2013-01-27 22:43:00,34.7,24.1,30.48,North,0,0.0,0.0,65,0.00,,,0.02,WUHU216HW,2013-01-28 03:43:00,
2013-01-27 22:48:00,34.7,24.5,30.48,North,0,0.0,0.0,66,0.00,,,0.02,WUHU216HW,2013-01-28 03:48:00,
2013-01-27 22:53:00,34.7,24.5,30.47,North,0,0.0,0.0,66,0.00,,,0.02,WUHU216HW,2013-01-28 03:53:00,
2013-01-27 22:58:00,34.7,24.5,30.48,North,0,0.0,0.0,66,0.00,,,0.02,WUHU216HW,2013-01-28 03:58:00,
2013-01-27 23:03:00,34.6,24.3,30.48,North,0,0.0,0.0,66,0.00,,,0.02,WUHU216HW,2013-01-28 04:03:00,
2013-01-27 23:08:00,34.6,24.3,30.48,North,0,0.0,0.0,66,0.00,,,0.02,WUHU216HW,2013-01-28 04:08:00,
2013-01-27 23:13:00,34.4,24.1,30.48,North,0,0.0,0.0,66,0.00,,,0.02,WUHU216HW,2013-01-28 04:13:00,
2013-01-27 23:18:00,34.4,24.1,30.48,North,0,0.0,0.0,66,0.00,,,0.02,WUHU216HW,2013-01-28 04:18:00,
2013-01-27 23:23:00,34.2,23.9,30.48,North,0,0.0,0.0,66,0.00,,,0.02,WUHU216HW,2013-01-28 04:23:00,
2013-01-27 23:28:00,34.0,23.8,30.48,North,0,0.0,0.0,66,0.00,,,0.02,WUHU216HW,2013-01-28 04:28:00,
2013-01-27 23:33:00,33.7,23.4,30.48,North,0,0.0,0.0,66,0.00,,,0.02,WUHU216HW,2013-01-28 04:33:00,
2013-01-27 23:38:00,33.5,23.2,30.47,North,0,0.0,0.0,66,0.00,,,0.02,WUHU216HW,2013-01-28 04:38:00,
2013-01-27 23:43:00,33.5,23.2,30.47,North,0,0.0,0.0,66,0.00,,,0.02,WUHU216HW,2013-01-28 04:43:00,
2013-01-27 23:48:00,33.3,23.1,30.47,North,0,0.0,0.0,66,0.00,,,0.02,WUHU216HW,2013-01-28 04:48:00,
2013-01-27 23:53:00,33.3,23.1,30.47,North,0,0.0,0.0,66,0.00,,,0.02,WUHU216HW,2013-01-28 04:53:00,
2013-01-27 23:58:00,33.3,23.1,30.47,North,0,0.0,0.0,66,0.00,,,0.02,WUHU216HW,2013-01-28 04:58:00,